Regional Weather Roundup
Issued by NWS

Home | Current Version | Previous Version | Graphics & Text | Print | Product List | Glossary On
Versions: 1 2 3 4 5 6 7 8 9 10 11 12 13 14 15 16 17 18 19 20 21 22 23 24 25 26 27 28 29 30 31 32 33 34 35 36 37 38 39 40 41 42 43 44 45
000
ASUS45 KSLC 272210
RWRUT

UTAH REGIONAL WEATHER ROUNDUP
NATIONAL WEATHER SERVICE SALT LAKE CITY UT
300 PM MST SAT DEC 27 2014

UTZ001>011-023>025-272300-

NORTHERN UTAH

CITY           SKY/WX    TMP DP  RH WIND       PRES   REMARKS
BRIGHAM CITY   CLOUDY    28  18  64 S12       30.31S WCI  18
HILL AFB       CLOUDY    25  15  65 S9        30.29S WCI  16
LOGAN          PTSUNNY   19  12  74 CALM      30.30R
OGDEN          CLOUDY    27  16  63 S10       30.29S WCI  17
PROVO AIRPORT  PTSUNNY   23  12  63 CALM      30.32S
SALT LAKE CITY CLOUDY    27  15  61 S9        30.31S WCI  18
VERNAL         MOSUNNY   20  11  68 E3        30.26S
WENDOVER       CLOUDY    30  12  47 CALM      30.29S
HEBER CITY     CLOUDY    19  10  68 CALM      30.25S
WEST JORDAN    SUNNY     25  18  74 S8        30.31S WCI  16

$$

UTZ012>022-026-027-272300-

SOUTHERN/CENTRAL UTAH

CITY           SKY/WX    TMP DP  RH WIND       PRES   REMARKS
BLANDING       SUNNY     31   9  41 SW8       30.29S WCI  23
BRYCE CANYON   SUNNY     23   5  46 NW7       30.19S WCI  15
CEDAR CITY     SUNNY     24  10  55 CALM      30.24F
DELTA          MOSUNNY   24  16  69 SE5       30.30S WCI  19
MILFORD        MOSUNNY   21  14  74 SW6       30.27F WCI  13
MOAB/CYNLANDS  SUNNY     21  14  74 NW7       30.29R WCI  12
PRICE          MOSUNNY   27   4  37 VRB3      30.21S
ST GEORGE      CLOUDY    43   7  22 CALM      30.34F
KANAB          SUNNY     36   5  27 E6        30.29F WCI  31

$$

REGIONAL REPORTS     COLORADO/ARIZONA

CITY           SKY/WX    TMP DP  RH WIND       PRES   REMARKS
CRAIG, CO      SUNNY     17   9  70 E3        30.21F
GRAND JUNCTION SUNNY     25  12  58 NW6       30.28R WCI  18
RIFLE          SUNNY     24   4  42 SW6       30.24S WCI  17
MONTROSE       SUNNY     25  10  53 CALM      30.24F
CORTEZ         SUNNY     31   7  36 W12       30.20S WCI  22
PAGE, AZ       SUNNY     37   7  28 NE3       30.28S
GRAND CANYON   SUNNY     32   4  30 CALM      30.21F
KINGMAN        SUNNY     44   9  23 N7        30.27F
FLAGSTAFF      SUNNY     29   8  41 N7        30.20R WCI  22

$$

REGIONAL REPORTS    NEVADA/IDAHO/WYOMING

CITY           SKY/WX    TMP DP  RH WIND       PRES   REMARKS
LAS VEGAS, NV  PTSUNNY   48   5  17 N5        30.30S
ELY            SUNNY     28  10  46 CALM      30.22S
ELKO           SUNNY     29  15  56 SW6       30.25F WCI  23
POCATELLO, ID  CLOUDY    28  18  66 SW9       30.24F WCI  19
BURLEY         CLOUDY    29  16  58 S15       30.23S WCI  18
EVANSTON, WY   PTSUNNY   17   9  70 SW17      30.14F WCI   1
ROCK SPRINGS   PTSUNNY   16   8  71 W30G37    30.08F WCI  -4

$$


USA.gov is the U.S. government's official web portal to all federal, state and local government web resources and services.